Temp
15 15 15 16 16 16 17 17 17 17 18 18 18 18 18 18 18 18 18 18 18 19 19 19 19 19 19 20 20 20 20 20 20 20 18 17 17 18 18 18 18 19 19 20 21 21 22 23 24 24 24 24 24 23 23 23 23 22 21 21 21 21 20 20 20 20 19 19 20 20 19 19 18 18 19 19 17 15 14 14 14 14 13 13 13 13 13 12
15 15 15 16 16 17 17 17 18 18 18 18 18 18 18 18 18 18 18 19 19 19 19 19 19 19 19 20 20 20 20 20 21 20 18 18 18 19 19 19 18 19 19 20 20 21 22 23 24 24 23 23 23 23 22 23 23 22 21 21 21 21 20 21 20 19 19 19 19 20 18 18 17 17 19 17 15 14 13 13 13 13 12 13 12 12 12 12
15 15 16 16 16 17 17 17 18 18 18 18 18 18 18 18 18 19 19 19 19 19 19 19 19 19 19 19 19 20 19 20 21 20 18 19 19 19 19 19 19 19 19 19 19 20 21 21 22 23 23 23 23 23 22 22 22 22 22 21 21 21 21 20 20 19 19 19 19 19 18 16 16 17 18 16 14 13 12 11 12 11 11 12 12 12 12 11
15 16 16 16 17 17 17 17 18 17 18 18 18 18 18 19 19 19 19 19 19 19 19 19 19 19 19 19 19 19 19 19 20 19 19 19 19 20 20 19 19 19 20 19 19 20 21 21 22 23 23 23 23 23 22 22 21 22 22 20 21 21 21 20 19 18 18 19 19 19 18 16 15 16 16 16 14 12 11 11 11 11 11 11 11 11 11 11
16 16 16 16 17 17 17 17 18 18 18 18 18 18 18 19 19 19 19 19 19 19 19 19 19 19 19 19 20 19 19 19 19 19 19 19 20 20 20 20 20 20 20 20 20 20 21 22 23 23 23 22 23 23 22 22 21 21 21 21 21 21 20 19 18 17 18 19 18 18 18 16 15 14 14 14 13 11 11 11 11 11 11 11 11 11 11 11
16 16 16 17 17 17 18 18 18 18 18 18 18 18 19 19 19 19 19 19 19 19 19 19 19 19 19 20 20 19 19 19 19 19 18 19 20 20 20 20 20 21 20 20 20 22 23 23 23 23 23 23 22 22 21 22 21 20 21 21 20 20 20 19 18 17 18 18 18 17 17 16 14 13 13 12 11 11 11 12 11 11 11 11 11 11 10 10
16 16 16 17 17 18 18 18 18 18 18 18 19 19 19 19 19 20 19 20 20 19 20 20 20 20 20 20 19 19 20 19 19 19 18 19 20 20 20 20 21 21 21 21 22 23 23 23 23 22 22 22 22 21 21 22 22 20 20 20 20 20 20 19 17 17 18 17 17 17 16 15 14 13 12 12 11 12 12 12 12 12 12 11 11 10 10 10
16 16 17 17 18 18 18 18 18 18 18 19 19 19 19 19 20 20 20 20 20 20 20 20 20 20 20 20 19 20 19 18 19 18 18 19 20 20 20 20 21 21 22 22 22 22 22 21 21 22 22 21 21 21 20 21 21 20 20 20 20 20 19 19 18 18 18 17 17 17 16 15 14 13 12 11 12 12 12 12 12 12 12 11 10 10 10 9
16 17 17 18 18 18 18 18 18 18 19 19 19 19 19 20 20 20 20 20 20 20 20 21 21 20 20 19 20 20 19 18 19 18 18 19 19 20 20 20 20 22 22 22 21 21 21 20 20 21 21 21 21 20 20 20 19 19 19 20 20 20 19 19 18 18 18 18 17 16 15 14 14 13 12 11 12 12 12 12 12 12 11 11 10 10 10 9
17 17 18 18 18 18 18 18 18 19 19 19 19 20 20 20 20 20 20 21 21 21 21 21 21 20 20 20 20 20 18 18 19 18 18 18 19 19 20 20 20 22 22 21 21 20 20 19 20 20 20 21 21 19 19 19 18 18 19 20 20 20 19 19 19 18 17 18 17 17 15 14 14 14 12 11 12 12 12 12 12 12 11 11 10 10 9 9
17 17 18 18 18 18 18 18 19 19 19 19 20 20 20 20 20 20 21 21 21 21 21 21 21 21 21 21 20 19 18 19 18 18 18 18 19 19 19 19 20 21 22 21 20 20 19 20 20 20 20 20 20 19 18 17 17 19 19 19 19 19 20 20 19 18 17 17 17 17 16 14 14 14 12 11 12 12 12 12 12 12 11 11 10 10 9 9
17 18 18 18 18 18 18 19 19 19 19 20 20 20 20 20 20 20 21 21 21 21 21 22 21 21 21 20 19 18 19 19 19 19 18 19 19 19 19 19 19 20 21 21 20 19 19 20 20 20 19 19 20 20 18 17 18 19 19 18 19 19 19 20 20 19 18 17 17 17 15 14 13 13 12 12 12 12 12 12 12 11 11 11 11 10 9 9
17 18 18 18 18 19 19 19 19 19 20 20 20 21 21 20 20 20 21 21 21 21 21 21 21 21 21 19 19 19 19 19 19 19 19 19 19 20 19 19 19 19 20 20 20 20 20 20 20 19 19 19 20 19 18 18 19 19 19 18 19 19 18 20 20 19 19 17 18 17 14 14 13 12 12 12 12 12 12 12 11 11 11 11 11 10 9 9
18 18 18 18 19 19 19 19 19 20 20 20 21 21 21 21 21 21 21 21 21 21 21 21 21 22 21 19 20 20 20 20 20 19 19 19 19 20 20 20 20 19 20 20 20 20 20 20 19 19 19 19 18 18 18 19 19 19 19 19 19 18 19 20 19 19 18 17 18 17 14 15 13 11 12 11 12 12 12 12 11 11 11 11 10 10 9 9
17 18 18 19 19 19 19 19 19 20 20 21 21 21 21 21 21 21 21 21 21 21 21 21 21 22 21 20 20 21 20 20 20 19 19 19 19 20 20 20 20 20 20 20 20 21 20 20 20 20 20 19 18 18 19 19 19 19 19 18 19 18 18 20 19 18 18 18 19 17 15 15 14 11 12 11 12 12 12 12 11 11 11 10 10 10 9 9
18 18 19 19 19 19 19 19 19 19 20 20 21 21 21 21 21 21 21 21 22 22 22 21 22 22 21 20 21 21 20 20 20 20 20 19 19 19 20 20 20 20 21 21 21 20 20 20 20 20 19 18 18 18 19 19 19 19 17 17 18 17 16 18 19 18 18 18 18 17 16 16 14 12 11 12 12 12 12 11 11 11 10 10 10 10 9 9
18 19 19 20 20 20 20 20 19 19 19 20 20 21 21 21 21 21 21 21 22 22 22 21 22 22 21 20 21 20 20 20 20 20 20 19 19 19 20 21 21 22 22 21 21 20 21 21 19 19 19 18 17 18 19 17 16 16 16 16 17 16 16 17 18 18 18 17 17 17 16 16 14 12 11 11 11 12 11 11 11 11 10 10 10 9 9 9
18 19 19 19 20 20 20 20 20 20 20 20 20 20 21 21 21 21 21 21 22 22 21 21 21 21 20 20 20 19 20 20 19 20 20 19 19 19 19 20 21 21 22 22 21 21 21 21 20 18 17 16 16 15 16 15 15 15 15 15 15 15 16 17 18 18 17 17 16 16 16 16 13 11 11 11 11 11 11 11 11 10 10 10 9 9 8 8
18 18 19 19 20 20 20 20 20 21 21 21 21 21 21 21 21 21 20 20 20 20 19 19 20 19 19 19 19 19 20 20 20 20 19 19 19 20 20 21 21 21 21 21 20 20 20 19 18 16 15 15 15 14 14 15 15 14 14 14 14 14 16 17 18 18 16 15 15 15 16 17 14 11 11 11 11 11 11 11 11 10 10 9 9 8 8 8
18 18 19 19 20 20 20 21 21 21 21 21 21 21 21 21 21 20 19 19 18 18 18 18 19 20 19 19 20 19 19 20 20 19 19 19 19 20 21 22 22 21 21 20 19 19 19 16 15 15 15 15 15 15 15 15 15 15 14 14 15 15 16 16 17 17 16 15 15 15 15 16 16 13 11 11 11 11 11 11 10 10 10 9 8 8 8 8
19 19 19 20 20 20 21 21 21 21 21 21 21 21 20 20 20 19 18 18 18 18 19 19 20 20 19 19 19 18 18 20 21 20 18 19 20 20 20 21 21 20 20 19 19 19 17 15 15 15 16 16 15 15 16 15 15 15 14 14 15 15 15 16 16 16 17 15 14 15 15 15 17 15 12 11 10 10 11 10 10 9 9 9 8 8 8 8
19 19 20 20 21 21 21 21 21 21 21 21 21 20 18 17 17 18 18 19 18 18 19 20 20 20 20 20 19 19 18 19 20 19 18 18 20 19 18 20 20 19 19 19 19 18 16 15 16 16 16 16 16 16 15 15 15 15 15 15 15 14 14 15 16 16 16 15 14 15 15 15 17 16 13 11 10 11 11 10 10 9 8 8 8 7 7 7
19 20 20 21 21 21 21 21 21 22 22 21 20 19 17 16 17 17 18 19 19 18 19 19 19 19 19 20 19 19 19 18 18 18 18 18 18 18 17 18 19 19 18 18 18 17 15 15 16 16 15 15 16 16 15 14 14 15 15 14 13 14 13 13 14 15 15 15 14 14 14 14 15 16 13 11 11 11 10 10 9 8 8 8 7 8 7 7
20 20 20 21 21 21 21 21 21 22 21 20 19 18 17 18 18 17 18 20 20 19 19 19 19 18 18 19 19 19 19 18 18 18 18 17 16 17 17 16 17 18 17 17 17 16 15 16 16 15 15 15 16 16 14 13 13 14 14 13 13 13 13 12 13 14 14 15 15 14 13 14 15 15 13 11 11 10 9 9 8 8 8 8 8 8 7 7
20 20 20 21 21 21 21 21 21 20 20 19 18 18 18 18 18 18 19 21 20 19 19 19 19 19 18 18 19 19 19 18 18 18 18 16 15 16 17 16 17 17 16 16 17 16 16 16 16 15 16 16 16 15 14 13 12 13 14 13 13 13 12 12 13 13 13 13 15 14 12 13 15 15 13 11 10 9 8 8 8 8 8 8 7 7 7 7
20 20 20 21 21 21 21 21 21 20 19 19 18 18 18 18 18 18 19 20 20 19 19 19 20 19 18 19 19 19 18 18 19 19 18 17 16 16 16 17 18 16 15 15 16 16 16 16 16 15 16 16 15 14 14 13 12 12 14 14 13 13 12 12 12 12 11 12 14 15 12 12 14 15 14 11 9 9 8 8 8 8 8 7 7 7 7 6
20 20 20 21 21 21 21 21 21 20 19 18 18 18 18 18 18 18 19 20 19 19 19 19 20 19 18 19 19 19 17 17 19 19 18 18 17 16 16 16 17 16 15 14 15 16 15 15 14 14 15 15 13 13 14 14 12 12 14 14 13 12 12 12 12 12 12 12 14 15 14 12 12 14 14 11 9 9 8 8 8 7 7 7 7 6 6 6
20 20 20 20 21 21 21 21 20 20 19 18 18 18 17 18 18 18 20 20 19 19 18 18 19 19 18 18 19 18 17 17 17 18 18 18 18 17 17 16 15 16 15 15 16 15 14 14 13 13 14 13 13 13 14 13 12 13 15 14 13 13 12 13 12 12 13 12 12 13 14 12 11 13 14 11 9 9 8 8 7 7 6 6 6 6 5 5
20 20 20 20 21 21 20 20 20 19 18 18 18 17 17 17 18 19 20 19 18 18 18 18 19 18 17 18 18 17 17 17 16 17 18 18 18 17 16 15 15 16 16 16 16 15 14 13 13 13 13 13 13 14 14 13 12 14 14 13 13 13 13 13 12 12 13 12 11 13 13 11 10 12 13 11 9 8 7 7 6 6 6 5 5 5 5 5
20 20 20 20 20 20 20 20 19 18 18 18 17 17 17 17 19 20 20 19 18 17 18 18 17 17 16 17 17 17 17 17 16 16 18 17 17 17 15 15 15 15 16 16 16 15 13 13 12 13 13 13 13 14 15 14 14 14 13 13 13 13 13 14 14 14 12 12 12 12 12 10 9 10 10 8 6 6 5 5 5 6 5 5 5 5 4 4
20 20 20 20 19 19 19 19 18 18 17 17 17 17 17 19 20 20 19 18 17 17 17 17 16 16 15 15 16 16 15 16 16 16 16 16 15 15 14 13 14 14 15 16 15 14 13 12 13 13 13 13 14 14 15 15 14 13 13 12 11 11 13 13 13 13 11 10 12 12 12 10 9 10 8 5 5 5 5 5 5 5 5 5 5 4 4 4
19 19 19 19 18 18 18 17 17 17 17 17 17 17 19 20 20 18 18 18 17 16 15 15 15 15 15 15 15 15 14 15 16 15 15 15 13 12 12 12 11 12 14 14 14 15 14 13 13 13 13 13 13 13 14 14 14 13 12 12 10 9 10 10 9 10 9 10 11 11 11 9 9 10 7 5 6 6 6 5 5 5 5 4 4 4 4 3
18 18 18 17 17 17 16 16 16 17 17 16 17 18 20 20 18 16 17 18 16 15 14 13 14 14 14 15 15 14 14 15 15 15 15 15 14 12 12 11 10 11 12 13 13 14 14 13 13 13 13 14 13 12 11 12 12 12 11 10 9 8 7 7 7 8 8 9 10 11 10 9 10 10 8 6 6 6 6 6 5 5 4 3 3 3 3 3
18 18 18 17 17 16 16 16 17 17 17 16 18 20 21 19 17 15 16 17 15 14 14 13 14 15 15 15 14 13 14 15 15 15 15 15 14 12 12 11 11 10 11 12 12 12 12 12 13 13 13 13 13 12 11 11 11 11 11 11 10 9 7 6 7 7 7 8 9 10 9 8 9 9 7 7 7 7 6 6 6 5 4 3 3 3 3 2
18 18 17 17 17 17 17 17 17 17 17 17 20 20 19 18 17 16 15 15 14 14 14 13 14 16 16 15 14 13 14 14 15 15 14 14 12 12 11 10 10 10 10 10 12 12 11 12 14 14 13 13 12 12 12 11 11 11 12 11 9 9 8 7 7 7 7 7 7 8 9 9 10 9 8 8 7 7 6 6 5 4 3 3 3 2 2 2
18 18 17 17 17 17 17 17 18 17 17 19 20 17 16 15 15 14 13 12 13 12 13 14 15 16 17 16 15 14 13 14 15 15 13 12 11 11 11 10 10 10 9 9 11 11 10 11 13 13 13 13 12 12 12 11 11 11 11 10 9 9 8 6 7 8 7 6 6 8 8 8 9 9 8 8 7 6 5 5 4 3 2 2 2 2 2 2
18 18 18 17 17 17 18 18 18 17 18 19 18 16 14 13 12 12 11 11 12 11 13 16 15 15 15 16 16 15 14 14 15 15 14 12 11 10 9 9 10 9 9 9 10 10 9 9 12 13 13 13 12 11 12 11 11 10 9 9 9 9 8 7 6 6 6 4 5 7 6 6 7 7 7 7 6 5 5 4 3 2 2 2 2 2 1 2
18 18 18 18 18 18 18 19 18 18 19 18 16 14 14 12 11 10 9 10 11 11 14 15 15 15 15 15 15 14 14 14 14 15 14 13 11 9 8 8 10 9 9 9 9 10 9 8 11 13 13 13 12 11 11 11 10 10 10 10 9 7 7 7 6 5 4 3 4 6 5 5 6 6 6 5 4 4 4 3 2 1 1 1 1 1 1 1
18 19 19 19 19 19 19 19 19 19 20 18 15 14 13 11 10 9 7 8 10 12 14 14 14 15 15 14 14 14 13 13 13 14 14 12 11 9 7 8 8 8 7 8 8 10 9 8 10 13 13 13 13 12 11 11 10 10 10 10 9 7 6 6 6 5 4 3 3 4 4 5 6 6 5 4 4 3 3 2 1 1 1 1 1 1 1 1
18 20 21 20 19 20 20 19 19 18 17 16 14 13 12 11 9 8 7 8 10 12 13 14 14 14 14 14 13 13 13 13 14 14 13 12 10 8 6 6 7 6 6 7 8 9 10 9 9 11 13 13 12 12 11 11 10 9 9 8 8 7 7 6 6 6 5 3 3 2 2 4 6 6 4 4 4 3 2 1 1 1 1 1 1 1 1 1
18 20 21 20 20 21 20 19 18 16 15 14 14 12 12 11 10 9 7 7 9 11 12 12 13 13 13 13 13 13 13 13 14 14 12 11 10 8 6 5 5 5 6 7 8 8 8 8 8 9 11 11 11 11 11 11 10 9 8 8 7 6 6 5 5 6 5 4 3 2 1 3 5 5 5 4 3 2 1 0 0 1 0 0 1 0 1 0
20 21 20 20 21 21 20 17 15 15 14 12 12 11 11 11 11 10 9 8 10 11 11 12 12 12 12 12 13 13 12 12 13 13 12 10 8 7 6 5 5 5 6 7 8 7 6 7 8 8 10 11 11 10 10 10 10 9 8 8 8 7 5 4 3 4 4 3 3 2 1 3 5 5 4 4 3 1 1 0 0 0 0 0 0 0 0 0
20 20 20 20 21 22 20 17 14 13 11 10 10 10 11 12 12 11 11 10 11 11 12 12 12 12 12 11 12 12 12 12 12 12 12 10 7 6 6 5 6 6 6 6 6 6 6 7 8 9 10 11 10 9 9 9 9 9 8 7 7 6 5 4 3 3 2 2 2 1 0 2 5 5 4 3 2 1 0 0 -0 -0 -0 -0 -0 -0 -0 -0
19 20 20 20 21 22 19 17 15 12 11 11 11 11 11 11 11 11 11 11 11 11 12 13 12 11 12 11 11 12 12 12 12 11 11 10 7 5 5 6 6 6 6 6 5 5 6 9 9 8 7 8 8 8 8 9 8 8 8 8 6 5 4 4 3 3 2 2 2 0 -1 2 4 4 3 2 1 0 -0 -0 -0 -1 -1 -1 -1 -1 -1 -1
19 20 21 19 19 19 17 16 15 13 12 13 13 12 12 11 10 10 11 11 10 11 12 12 11 11 11 11 11 12 12 12 12 11 10 9 7 6 6 6 6 6 5 5 4 3 5 9 9 7 5 5 6 6 7 8 8 7 8 8 6 4 3 3 2 1 1 1 1 -0 -0 1 3 3 2 1 0 -0 -1 -1 -1 -1 -1 -1 -1 -1 -1 -1
20 20 20 19 18 16 15 15 15 14 14 14 14 13 13 13 11 10 10 11 10 10 11 12 11 11 12 12 12 12 13 12 11 10 9 9 8 7 6 6 6 6 6 5 4 3 5 8 7 6 6 5 5 6 7 7 7 6 7 7 6 4 3 2 2 1 1 0 0 0 1 1 1 1 1 -0 -1 -1 -1 -1 -1 -1 -1 -1 -1 -1 -1 -1
20 19 17 18 18 16 16 15 15 14 15 15 14 13 13 13 12 11 11 11 11 10 11 12 12 12 12 11 11 12 12 11 11 10 8 8 8 7 6 6 7 7 6 6 5 4 6 7 6 5 6 5 5 6 6 6 6 6 6 7 6 4 3 2 1 1 1 -0 -1 1 1 -0 -1 0 -0 -1 -1 -1 -2 -2 -2 -2 -2 -2 -2 -2 -2 -2
18 17 14 15 16 16 16 15 14 14 15 14 13 13 13 14 13 12 12 11 11 10 11 12 12 11 11 11 11 11 11 11 10 9 7 7 7 7 7 7 7 8 7 7 6 5 5 7 6 5 5 5 5 5 6 7 7 7 6 6 5 4 2 2 1 1 1 -0 -1 0 0 -1 -1 -0 -1 -1 -2 -2 -2 -2 -2 -2 -2 -2 -2 -2 -2 -3
16 15 14 13 14 13 13 13 14 15 15 14 13 13 14 14 13 12 11 11 12 12 12 13 12 11 11 10 11 11 10 10 10 8 7 7 7 7 7 7 7 8 7 6 6 5 5 6 6 5 4 4 5 6 7 7 6 6 6 5 4 3 2 2 1 1 1 0 -0 -0 -1 -1 -1 -1 -1 -1 -2 -2 -2 -2 -2 -2 -3 -3 -3 -3 -3 -3
17 17 15 14 14 12 12 12 14 16 16 15 14 13 13 14 13 12 11 11 13 13 12 12 11 10 10 10 10 10 9 8 9 8 7 7 7 7 7 6 6 7 7 5 5 5 6 6 6 5 4 4 6 7 7 6 5 6 6 4 2 2 1 1 1 1 0 -1 -0 -1 -2 -1 -1 -1 -1 -2 -2 -2 -3 -3 -3 -3 -3 -3 -3 -3 -4 -4
16 16 16 16 15 13 13 14 15 16 16 14 14 13 13 13 12 12 11 10 11 11 11 10 11 10 10 10 10 9 7 6 7 6 6 7 6 6 6 6 6 6 6 5 5 5 5 4 5 5 3 4 6 6 6 5 5 5 4 2 1 1 0 0 0 0 -0 -1 -1 -2 -3 -3 -2 -1 -2 -2 -2 -3 -3 -3 -3 -3 -3 -3 -3 -4 -5 -5
16 16 17 18 16 13 13 15 15 16 15 12 11 12 12 12 11 11 12 10 9 9 9 9 10 9 10 10 9 7 5 5 5 6 6 7 6 6 5 6 6 5 5 5 5 4 4 3 4 4 3 3 6 6 5 5 5 4 2 1 1 1 -0 -0 -0 -0 -0 -0 -2 -3 -3 -3 -2 -2 -3 -3 -3 -3 -4 -3 -4 -4 -4 -3 -4 -5 -5 -5
Height
798 798 798 798 797 797 797 796 796 795 795 794 794 793 792 792 791 791 791 790 790 789 788 788 787 788 788 787 786 786 785 785 786 785 786 789 789 787 786 784 782 781 779 778 776 775 773 771 770 770 771 771 770 771 771 770 771 775 781 785 785 782 783 783 781 784 785 783 780 777 779 783 787 785 781 784 790 795 798 800 802 804 805 807 808 808 807 806
798 798 798 798 798 797 797 797 797 796 796 795 794 794 792 792 792 792 791 791 790 789 788 788 787 788 788 788 787 786 786 785 785 786 788 789 788 786 785 783 782 780 778 778 777 776 775 772 770 770 771 771 770 771 772 771 773 778 780 782 783 782 781 778 779 783 783 784 783 779 782 786 789 789 783 787 796 797 801 804 804 806 806 807 808 808 807 806
799 799 799 799 798 798 798 797 797 796 796 795 794 793 792 792 792 792 792 791 790 789 788 787 787 787 787 788 787 787 787 786 786 788 789 788 787 786 784 783 781 780 779 778 777 777 776 774 773 772 771 771 770 771 773 774 774 775 778 783 783 778 778 778 779 782 783 784 783 781 785 789 791 789 785 790 798 801 806 808 808 809 809 808 808 808 808 807
799 799 799 799 799 798 798 798 797 797 796 795 794 793 793 793 793 793 792 791 791 790 789 788 787 787 787 787 787 788 787 788 791 791 790 788 787 786 784 783 781 780 779 778 778 777 776 774 773 771 772 773 770 771 773 775 776 775 777 783 780 776 778 781 781 784 784 783 783 783 785 792 793 792 791 791 797 805 808 810 810 810 810 809 809 809 809 808
800 800 800 799 799 799 799 798 797 797 796 795 794 793 793 793 793 793 792 792 791 790 789 789 788 787 786 786 788 788 788 795 796 791 790 788 787 786 784 783 781 780 779 778 777 775 775 773 772 772 773 774 773 774 775 773 775 778 777 779 778 777 780 781 783 786 785 783 784 784 786 792 794 796 798 795 800 808 809 809 810 810 810 810 810 810 809 809
800 800 800 800 800 799 799 798 798 797 796 795 794 794 794 794 794 793 793 792 791 791 790 790 789 788 788 787 789 788 791 800 798 791 791 789 787 787 785 783 782 780 779 777 776 773 773 771 771 773 772 773 775 776 777 773 774 781 780 777 778 779 781 782 785 788 786 785 787 788 789 792 796 801 802 802 805 809 808 809 809 809 810 810 810 810 810 809
801 801 801 800 800 800 799 799 798 797 796 795 795 794 794 795 794 794 793 792 792 791 790 790 789 790 790 789 790 790 791 798 796 793 792 789 788 787 785 784 782 780 779 777 776 773 773 772 772 773 773 776 778 778 778 775 775 781 782 779 780 780 782 784 787 788 787 788 788 788 791 793 798 803 804 806 807 807 807 808 808 808 809 810 810 810 810 810
801 801 801 801 801 800 799 799 798 797 796 796 795 795 795 795 795 794 793 793 793 792 791 791 791 790 790 790 791 791 794 797 796 794 792 790 789 787 785 784 782 781 780 779 778 775 775 776 776 775 777 779 779 779 780 779 779 781 783 781 781 781 782 784 787 788 787 788 788 789 793 796 798 801 805 807 806 806 806 806 807 807 808 809 810 810 811 811
802 802 801 801 801 800 799 799 798 797 797 796 796 796 796 796 795 795 794 794 793 793 792 791 792 790 790 790 789 793 799 799 796 795 793 791 789 787 786 784 783 781 781 781 779 778 777 780 780 777 780 779 778 781 782 785 787 784 784 782 781 782 783 784 786 787 788 787 788 792 797 799 798 800 805 806 805 805 805 805 806 806 807 809 810 810 811 811
802 802 802 801 801 800 799 799 798 797 797 797 797 797 797 796 796 796 795 795 794 793 793 792 792 791 790 789 790 799 801 798 797 795 793 791 789 788 787 785 784 782 782 782 781 780 780 781 780 777 779 779 780 784 783 787 790 786 784 783 782 783 782 783 784 786 787 787 787 791 796 797 797 798 803 805 804 804 804 805 805 805 807 808 809 810 811 811
803 802 802 801 801 800 799 799 799 798 798 798 798 798 797 797 797 796 796 795 795 794 794 793 792 792 792 790 794 802 801 797 797 795 793 792 790 789 787 786 786 784 783 782 782 782 781 781 779 778 781 782 782 784 785 788 788 785 784 786 785 783 782 781 782 785 786 788 786 786 792 796 796 797 801 803 802 802 802 803 804 804 806 806 808 809 810 811
803 802 802 802 801 801 800 800 799 799 799 798 799 798 798 798 797 797 796 796 795 795 795 794 793 793 793 793 799 803 800 798 798 795 794 792 791 790 788 788 786 785 784 783 784 783 782 781 779 781 784 784 783 785 787 786 784 783 784 789 787 784 785 780 780 782 783 787 785 785 793 795 795 797 799 801 801 801 801 802 803 803 805 805 806 808 810 810
803 803 802 802 802 801 801 801 800 799 799 799 799 798 799 798 798 798 797 796 796 795 795 794 794 793 794 798 801 802 800 799 797 796 794 792 791 790 789 789 787 786 785 785 785 783 783 782 781 783 783 783 785 786 786 783 783 784 784 788 787 787 788 780 778 779 780 785 782 787 797 792 792 796 798 799 799 799 800 800 802 802 804 805 805 807 808 810
803 803 803 803 803 802 802 801 800 799 799 799 799 799 799 799 799 798 797 797 796 796 795 795 795 793 796 801 801 800 799 799 798 796 794 792 791 790 790 789 788 787 786 786 785 784 784 782 782 783 783 784 787 787 786 784 785 785 784 786 788 793 790 778 778 780 781 784 779 787 797 789 791 796 796 797 797 797 798 798 800 801 802 803 804 806 807 808
804 804 804 804 804 803 802 801 800 800 799 800 800 800 800 799 799 798 798 798 796 796 796 795 795 794 797 801 800 800 799 798 797 796 794 793 792 791 790 789 788 787 787 786 786 785 784 782 784 786 786 785 786 789 789 787 786 786 791 794 791 796 793 780 779 781 783 783 776 785 794 786 787 794 794 796 795 795 795 797 799 800 801 802 803 804 806 807
805 805 805 805 804 804 803 802 801 801 800 800 800 800 800 800 800 799 799 798 797 797 796 796 794 794 801 804 800 800 800 798 798 797 795 794 793 792 791 789 788 787 787 786 785 785 784 784 785 787 788 789 790 790 788 792 794 792 799 803 797 799 799 788 781 779 781 782 779 784 789 782 782 790 792 793 794 794 794 795 797 799 800 801 802 803 805 806
806 806 805 805 805 804 804 803 803 803 802 802 802 801 801 801 800 800 799 798 798 798 797 798 795 794 801 804 802 802 801 800 799 797 796 794 794 793 792 790 788 787 787 786 785 785 784 785 788 791 793 796 798 794 793 806 811 805 806 806 801 801 803 795 785 781 780 783 782 783 783 777 779 788 791 791 792 792 793 794 796 798 799 800 801 803 804 805
807 806 806 805 805 805 805 805 804 804 804 804 803 803 802 802 801 800 799 798 798 797 798 799 796 802 809 806 806 808 804 802 800 798 797 795 793 793 792 790 789 788 786 787 788 786 786 787 791 797 802 804 807 807 810 818 818 816 814 811 808 806 803 797 788 783 782 784 784 784 780 776 781 789 789 790 791 791 791 792 794 796 798 800 801 802 804 805
808 807 807 806 806 806 806 805 805 805 805 804 804 804 803 803 802 801 802 801 801 805 810 809 806 814 819 812 809 809 804 803 802 800 798 795 794 792 791 790 789 788 788 792 794 792 792 796 801 808 814 813 813 816 820 819 817 817 816 814 814 810 802 795 788 784 784 787 785 783 779 773 778 786 787 788 789 789 790 790 793 796 797 800 801 803 804 805
809 808 808 807 807 807 807 807 806 806 804 804 804 804 804 805 807 810 809 806 809 814 818 817 813 815 817 813 811 809 805 803 802 802 799 796 794 792 790 790 789 790 793 798 801 797 798 809 817 819 820 818 816 816 816 815 814 814 816 815 811 807 802 796 789 784 784 789 785 780 778 773 771 777 783 786 787 788 788 790 793 795 798 800 802 804 805 806
810 810 809 808 808 808 808 808 807 806 805 804 804 805 807 808 811 816 815 813 816 816 816 816 814 814 815 814 813 810 809 806 803 803 801 797 793 793 794 791 792 797 798 799 801 799 803 817 823 821 818 817 816 815 814 814 813 811 815 814 808 807 804 797 791 786 783 787 785 777 777 773 766 770 778 782 785 787 787 790 793 796 799 801 804 806 806 807
811 810 810 810 810 809 809 808 808 807 806 805 805 806 809 810 811 812 813 817 819 816 816 816 815 815 815 814 813 811 811 810 806 804 802 798 795 798 800 795 798 804 800 798 802 806 813 822 822 817 817 817 815 814 815 816 813 810 810 812 812 810 805 796 790 788 786 789 785 776 774 771 764 765 773 780 782 784 786 789 794 798 801 803 806 807 807 808
812 811 811 811 810 810 810 809 809 808 807 807 807 808 810 811 811 811 811 815 819 818 817 817 817 817 816 815 814 811 813 815 813 809 806 804 802 803 805 804 804 806 806 805 808 814 822 824 820 817 818 819 815 813 818 821 817 812 810 815 818 814 812 805 794 790 791 790 784 777 774 771 765 763 771 780 781 784 788 793 797 801 803 806 807 807 808 808
813 812 812 811 811 811 810 810 810 809 808 808 809 810 810 811 810 811 811 812 818 819 817 818 818 818 819 817 816 814 815 817 816 814 811 810 809 806 808 812 810 810 813 813 813 819 825 822 819 819 818 819 817 817 823 827 823 817 815 820 821 814 815 812 800 793 790 785 780 778 779 772 764 765 773 780 782 786 793 797 801 804 805 807 807 807 808 808
813 813 813 812 811 811 810 811 810 810 810 809 810 810 810 811 810 811 812 814 821 821 818 819 818 819 820 818 817 815 816 817 817 817 814 814 814 811 811 812 813 817 820 817 816 821 824 821 819 820 817 817 820 822 825 829 828 823 818 819 819 814 813 808 802 799 796 789 778 779 789 779 764 764 772 780 786 790 795 798 802 805 805 807 809 809 809 809
814 814 813 812 812 811 811 811 810 811 811 810 811 811 810 811 810 812 813 819 829 828 823 821 821 823 822 820 816 813 819 822 818 818 817 816 817 816 817 814 814 821 823 821 821 823 823 820 821 822 820 820 824 824 824 826 831 828 817 815 816 814 812 806 803 806 806 796 780 778 791 787 770 763 767 779 789 792 797 800 802 806 807 809 810 810 811 810
815 814 814 813 813 812 811 811 811 811 810 811 811 810 811 811 811 813 816 827 836 832 828 825 825 827 825 824 818 818 830 829 819 819 818 818 817 815 820 822 820 822 824 824 825 826 826 824 826 826 822 824 828 828 824 824 831 827 814 814 815 812 810 804 803 807 803 795 786 778 783 787 778 766 766 779 790 793 799 802 804 808 810 811 812 812 813 813
815 815 814 814 813 812 812 811 811 810 811 811 811 811 812 811 812 813 821 840 844 833 832 832 828 828 827 826 823 825 835 832 826 825 819 819 819 816 821 826 826 824 823 826 828 829 829 828 831 830 827 829 830 828 824 824 829 823 812 814 814 811 807 799 800 802 795 796 796 783 781 792 788 770 767 777 786 792 799 805 809 812 813 813 814 814 814 814
816 815 814 814 813 812 812 812 811 811 811 811 811 813 812 811 814 815 825 845 846 836 836 834 830 832 831 828 828 831 833 832 834 831 821 822 822 819 824 827 826 826 822 822 824 827 829 829 831 831 830 832 830 826 822 823 826 818 812 814 812 809 802 793 796 796 793 799 800 787 786 802 799 777 771 780 791 801 805 810 814 814 815 816 814 814 813 812
816 815 814 813 812 812 812 811 811 811 812 812 813 813 812 813 816 823 836 847 847 842 839 836 837 840 838 836 835 835 835 835 835 831 825 826 825 822 825 825 825 826 824 823 824 827 830 830 831 831 832 832 828 824 819 819 821 816 815 815 811 808 798 789 788 790 796 798 793 789 792 806 807 788 788 802 810 815 816 816 817 816 817 816 814 814 812 811
816 815 814 813 812 812 811 811 811 812 812 813 814 813 814 816 819 833 849 849 846 846 843 843 845 844 844 846 844 841 840 837 835 835 832 830 831 830 829 834 834 830 827 827 828 829 831 832 831 830 831 828 826 824 818 816 818 818 819 817 817 813 799 794 794 796 808 805 793 792 794 804 806 793 802 817 816 816 818 819 819 817 816 816 816 815 814 813
816 815 814 812 812 811 811 812 812 812 813 813 814 813 816 823 832 847 853 847 849 854 853 853 851 848 849 849 848 847 846 842 837 839 840 838 843 845 846 853 854 847 840 836 834 830 829 832 832 831 831 827 827 828 823 819 819 821 821 821 831 830 819 819 819 815 819 810 797 797 800 805 800 790 804 817 814 814 816 817 819 817 817 818 818 818 816 816
817 816 814 814 813 812 812 812 812 813 813 813 814 814 818 832 850 861 855 849 856 859 858 859 854 851 851 848 850 851 847 846 841 840 841 841 847 853 854 858 861 859 853 846 843 838 833 833 830 830 830 827 828 833 833 830 826 828 828 830 841 846 849 851 839 830 829 815 801 800 805 808 799 792 804 811 811 812 812 814 816 815 818 819 818 818 816 813
818 816 816 815 813 813 813 813 814 813 813 814 814 816 826 844 860 865 859 856 860 859 858 860 856 851 850 850 854 854 849 847 844 843 843 842 850 857 858 860 862 863 860 853 850 848 847 843 833 831 831 828 829 833 837 836 833 831 829 831 839 846 859 863 849 843 841 824 808 804 806 809 803 800 805 806 807 809 810 812 812 813 817 817 816 815 812 809
819 818 817 815 814 815 813 814 814 813 814 814 816 826 841 855 859 860 863 863 863 862 859 860 856 850 848 850 854 854 854 851 844 846 850 852 858 862 863 867 868 867 867 862 854 850 852 845 832 830 831 829 831 832 833 837 837 831 827 833 841 844 852 856 846 841 840 831 820 810 806 803 798 798 802 803 805 807 809 809 810 814 817 816 814 812 811 812
819 818 818 817 815 815 814 814 813 814 814 814 824 844 860 866 865 865 870 870 868 869 864 859 856 853 851 851 851 853 856 854 848 849 855 861 867 868 868 872 872 872 874 871 862 858 861 850 833 832 833 829 832 832 831 837 838 833 834 840 843 841 845 854 849 835 836 842 829 814 810 805 800 799 800 802 805 807 810 811 813 817 818 816 815 814 815 814
819 819 819 818 816 815 815 815 813 815 814 816 835 858 867 871 875 875 875 873 872 874 866 858 858 860 858 855 853 855 857 855 851 850 855 862 869 874 876 874 872 873 876 876 870 866 870 862 840 833 834 829 831 833 830 833 837 837 841 842 839 840 843 851 855 848 850 853 834 818 819 817 813 810 803 805 812 814 815 816 818 820 819 820 819 818 817 813
819 819 819 818 818 817 816 815 815 814 815 826 849 864 867 873 878 878 880 878 876 873 866 862 862 862 861 861 861 860 859 858 856 854 856 862 869 879 884 880 875 875 876 877 874 866 870 869 845 830 832 829 830 835 833 833 837 838 839 838 841 853 855 851 858 863 865 859 839 826 826 821 816 814 812 817 821 819 818 819 822 824 823 823 821 818 816 811
820 820 820 821 820 818 817 816 815 814 818 837 858 866 870 878 881 882 884 882 877 872 867 867 866 863 863 866 867 865 864 864 863 859 860 864 870 881 889 885 879 879 879 879 876 868 869 872 853 832 831 830 827 831 834 835 837 837 838 839 842 853 857 856 860 862 864 861 849 840 834 822 815 816 821 824 821 819 822 823 826 826 824 823 820 817 814 809
820 821 822 822 820 820 819 816 816 823 835 850 862 867 872 878 882 884 886 883 878 874 870 870 870 868 867 868 869 869 868 866 863 861 864 869 874 882 892 892 886 885 882 878 877 873 868 869 860 841 833 833 831 832 835 836 840 843 845 846 848 852 854 856 856 851 858 865 861 857 846 825 815 818 822 824 822 823 827 828 827 825 823 822 820 816 812 808
820 823 825 822 821 821 818 820 829 839 850 859 864 870 874 876 879 882 884 884 880 876 876 874 873 872 872 870 869 870 870 866 862 862 866 872 877 883 891 895 893 890 885 877 877 878 874 872 868 856 844 838 835 835 836 836 839 845 849 848 851 857 859 865 863 851 856 866 864 864 856 830 817 820 822 825 828 829 831 831 829 826 823 821 818 816 812 807
822 828 828 823 822 820 819 834 849 853 859 868 872 874 876 875 877 879 881 884 881 878 877 876 874 874 874 873 871 870 871 868 865 864 867 875 885 889 891 893 893 891 888 883 879 881 883 880 873 863 849 839 838 840 841 840 839 843 849 849 850 855 861 872 874 862 862 867 861 862 855 829 816 821 824 827 831 833 835 834 831 827 824 820 817 814 811 806
826 830 828 824 823 820 825 846 861 864 871 878 877 877 877 875 876 878 879 880 879 877 876 874 875 876 876 877 875 872 872 871 868 868 869 876 889 894 893 892 891 888 888 887 884 883 882 876 868 860 848 839 839 843 843 842 843 845 848 850 853 859 863 869 870 867 872 873 867 869 857 825 815 823 826 829 833 835 837 834 832 828 822 820 817 812 809 805
829 830 828 826 822 821 832 850 862 870 876 876 874 877 878 878 879 879 879 880 879 878 875 874 876 877 876 878 877 873 872 871 871 871 871 877 889 894 893 892 891 889 890 891 891 890 881 868 865 870 869 858 850 850 848 845 846 848 847 849 854 862 866 868 868 871 877 872 870 879 863 826 816 825 828 832 835 836 837 834 832 828 821 819 816 811 808 804
830 831 831 830 826 828 841 852 858 867 873 871 873 875 875 879 883 883 882 881 881 880 877 875 877 878 876 876 875 872 871 871 872 873 876 881 889 894 892 892 891 890 893 893 895 897 887 871 869 881 891 888 877 868 860 852 850 850 848 848 854 863 870 872 874 879 879 871 869 878 863 829 821 830 832 835 838 836 836 834 831 828 823 819 815 811 807 802
831 836 838 838 837 840 850 855 856 862 867 867 870 873 873 877 882 883 882 881 880 880 878 876 877 877 875 873 873 870 869 871 874 876 880 884 888 892 892 892 892 890 892 892 894 897 888 875 877 884 889 891 885 874 864 859 859 856 851 849 854 864 870 871 877 880 876 872 867 865 857 840 832 837 838 838 840 837 835 833 830 827 822 817 814 810 806 802
834 844 849 847 847 850 855 858 859 862 862 863 868 874 875 876 879 880 880 879 880 880 878 875 876 876 875 875 875 872 870 873 874 879 886 887 888 891 891 891 891 888 890 890 891 894 888 879 884 889 885 885 882 874 867 865 862 856 852 850 852 863 869 871 878 877 873 877 867 849 850 850 842 840 842 842 842 839 836 833 830 826 822 818 813 809 805 801
839 850 856 853 854 859 860 861 863 863 862 864 871 876 874 875 877 878 878 878 879 880 878 875 876 877 878 880 879 876 874 875 876 883 890 889 889 891 890 891 890 887 889 889 888 894 893 883 884 889 887 883 880 873 865 861 859 853 852 852 854 863 871 873 878 875 874 881 870 849 850 853 845 842 845 845 843 841 838 835 831 826 822 817 812 806 802 799
844 851 856 856 859 866 867 865 865 863 863 866 871 876 874 874 877 879 880 878 877 878 877 875 878 880 880 880 880 878 880 880 880 887 891 889 890 890 889 891 891 887 890 892 891 894 893 884 883 889 890 883 876 869 862 859 858 854 852 856 863 869 872 874 877 875 874 877 870 859 857 853 847 847 848 846 844 842 840 837 832 826 820 815 810 805 802 800
842 846 852 855 861 868 869 867 865 862 862 865 869 876 877 874 876 879 881 880 876 876 877 878 880 882 882 882 881 881 886 887 886 890 892 890 891 891 890 894 894 890 891 894 894 893 891 888 886 889 892 883 870 864 861 860 861 857 855 862 870 874 876 877 877 875 874 872 867 864 862 855 850 850 850 849 846 842 840 837 831 826 819 812 808 804 803 801
840 842 845 849 860 868 867 865 864 861 865 870 873 877 877 875 878 879 880 883 882 880 882 883 882 883 883 883 882 885 891 893 892 894 894 892 893 893 893 895 895 894 894 896 897 896 896 896 890 889 895 886 869 864 865 861 857 858 865 874 877 878 881 881 879 876 875 872 866 865 866 859 852 850 849 849 847 843 840 836 832 827 820 813 808 805 803 799
840 842 842 844 857 868 867 865 863 862 870 879 880 880 879 879 882 881 879 883 886 886 887 887 885 885 883 882 886 892 896 896 896 896 894 893 894 895 896 896 896 898 898 897 898 898 900 902 895 895 899 887 871 870 870 863 860 864 874 882 882 881 881 880 878 877 874 871 870 870 868 861 853 850 848 848 848 845 841 838 834 829 822 817 813 809 805 800
Wind_Speed
6 5 5 4 5 5 5 5 5 5 4 5 6 6 6 4 3 4 7 9 9 9 7 5 3 2 1 2 2 2 4 4 9 16 12 12 23 22 18 18 17 16 13 10 9 11 11 9 7 4 4 4 2 1 1 1 1 0 2 3 3 2 3 3 4 5 4 5 8 8 7 5 4 5 2 5 9 10 9 9 9 9 10 10 11 11 13 15
6 5 4 4 5 5 5 5 4 4 4 6 7 7 7 5 3 4 7 9 10 10 8 6 4 3 4 4 3 5 7 8 9 14 10 20 25 18 15 16 14 13 10 8 8 10 9 7 5 3 4 3 2 1 1 1 1 2 3 3 1 3 3 4 5 5 4 4 6 5 7 6 4 4 4 2 6 8 8 7 7 8 9 10 12 13 14 15
6 5 4 5 5 5 4 4 4 5 7 8 8 8 7 5 3 4 7 9 10 11 9 7 5 5 6 7 6 6 8 10 9 11 15 25 20 13 14 13 11 10 8 6 8 9 8 8 8 6 5 3 1 1 1 1 1 2 2 2 1 3 3 6 7 5 4 4 5 3 7 7 5 4 5 3 8 8 7 5 5 7 8 8 9 12 14 15
5 5 4 5 4 4 4 5 6 8 9 9 8 7 6 4 3 5 8 9 11 11 9 6 6 5 4 7 7 4 6 6 5 11 20 23 14 11 13 13 12 9 7 6 7 9 8 8 8 6 4 2 1 1 1 2 0 1 1 1 3 4 3 6 7 5 4 3 4 3 5 8 6 6 5 2 6 6 6 5 5 6 7 7 7 10 12 13
5 4 4 4 4 5 6 7 8 8 9 8 8 7 5 4 4 6 8 10 12 11 7 7 8 10 6 3 7 3 3 2 5 15 24 20 11 11 12 14 13 10 10 7 6 9 9 8 7 4 4 1 1 2 0 2 1 1 1 3 4 4 3 6 7 5 4 3 3 3 2 6 6 7 8 5 4 4 4 4 5 5 6 6 7 8 10 12
4 4 4 4 5 6 7 7 7 8 8 8 8 7 5 5 5 7 9 10 12 10 5 5 9 13 12 6 5 4 1 1 7 18 23 16 10 10 12 13 12 11 12 10 8 9 6 6 5 3 2 1 2 1 2 2 0 1 1 3 4 4 3 5 6 3 4 3 2 2 4 5 6 7 6 8 7 5 4 4 4 5 6 8 8 8 9 9
4 4 4 6 7 7 7 7 8 8 8 8 7 7 6 5 7 8 10 11 12 11 5 1 5 8 7 6 2 1 3 5 10 19 20 13 9 10 11 12 14 12 11 12 10 7 5 6 3 2 2 1 2 3 2 2 0 2 0 3 3 3 3 5 4 1 2 3 2 3 5 4 6 6 5 7 6 5 4 3 4 6 7 8 7 6 7 8
4 5 6 6 6 6 6 7 8 8 8 8 7 6 5 5 7 9 10 10 10 12 9 3 4 6 4 3 3 1 6 7 13 18 17 12 9 11 11 11 15 13 10 12 13 9 5 7 7 4 2 2 2 2 2 2 1 1 2 3 1 2 3 5 4 2 2 2 2 3 4 5 6 6 5 6 5 4 5 4 4 5 6 6 6 6 7 8
5 6 6 6 6 5 6 7 7 8 8 7 6 5 4 5 7 9 9 8 8 10 10 7 6 8 7 4 4 0 6 10 14 16 16 14 11 11 10 11 14 11 10 13 14 12 7 5 6 5 3 3 2 2 2 2 1 3 2 1 1 3 4 4 5 4 2 1 3 4 4 5 7 6 5 5 4 4 4 4 4 4 5 5 5 6 6 7
6 6 5 5 5 5 6 7 7 8 7 6 4 4 4 5 7 8 8 7 8 8 9 8 7 10 8 2 2 2 8 12 12 15 15 15 13 10 8 11 14 11 9 13 14 12 9 6 6 6 4 2 2 2 3 1 1 3 2 1 1 2 3 3 4 5 2 1 2 3 5 6 5 3 1 4 4 3 5 4 3 3 4 5 5 5 6 7
6 5 5 5 5 6 7 7 7 7 6 5 3 4 4 5 6 7 7 7 7 7 9 8 6 8 12 10 6 4 10 12 12 14 13 13 13 10 10 12 13 13 10 11 13 12 9 8 7 3 2 2 1 2 2 0 2 2 1 1 1 2 2 3 3 5 4 2 2 3 4 4 3 3 2 5 4 4 4 4 4 3 3 4 5 5 5 6
6 5 5 5 6 7 8 7 7 7 6 5 4 4 4 4 5 6 7 6 4 5 6 7 7 7 9 11 8 5 9 10 11 13 12 11 12 9 10 10 9 11 10 8 9 10 10 11 8 2 1 3 1 1 2 2 3 1 2 2 5 5 3 3 3 4 5 2 2 2 2 5 6 4 5 6 5 5 5 4 4 3 3 3 4 4 4 5
5 5 5 6 8 8 8 8 7 6 5 4 4 4 4 3 4 6 7 7 4 4 3 3 5 5 6 5 4 8 9 9 12 13 14 12 9 6 7 8 7 8 8 7 7 9 9 11 9 4 1 3 1 0 1 2 2 1 3 3 3 3 3 5 4 1 2 3 4 3 1 4 6 6 6 6 5 6 6 4 4 4 4 3 3 4 4 5
5 5 6 7 8 8 8 7 6 6 5 5 4 4 3 3 4 6 8 10 9 6 5 5 5 4 4 3 2 10 13 10 14 15 16 16 9 4 4 6 5 6 7 6 5 7 8 9 5 0 2 2 2 1 3 1 1 2 1 2 1 2 2 4 4 1 0 3 5 4 4 4 6 8 7 6 6 7 6 5 4 3 4 3 3 4 4 5
5 6 7 7 7 7 7 7 9 9 7 5 3 4 3 3 4 4 6 11 13 11 7 7 7 4 2 3 1 10 15 13 16 16 14 16 12 6 6 7 5 5 7 5 4 5 7 10 3 0 3 1 0 1 3 2 1 3 3 2 3 3 5 3 4 2 1 2 3 4 4 4 6 9 8 7 7 7 6 5 5 4 4 3 3 3 3 4
6 7 7 6 6 7 9 14 16 16 14 11 7 5 2 2 4 4 5 7 11 15 10 7 10 5 3 2 4 10 15 14 16 17 14 14 11 8 10 8 7 5 3 3 3 1 3 5 1 1 4 3 4 3 1 1 2 4 4 3 4 4 6 5 2 4 2 2 3 3 5 5 4 8 8 8 7 7 6 6 6 4 4 4 3 3 2 3
6 6 6 5 6 7 12 15 16 17 19 19 18 15 13 11 7 4 6 6 5 10 11 11 11 2 5 6 6 9 13 14 16 18 17 14 9 10 11 7 6 7 6 6 5 4 4 1 0 1 5 6 6 5 3 4 4 3 3 3 4 5 6 6 2 2 1 2 3 5 7 7 4 9 9 8 8 8 7 6 6 5 4 4 3 2 2 2
7 6 6 5 6 9 11 10 9 10 11 13 16 19 22 22 20 17 14 8 2 1 5 14 12 2 3 10 8 10 15 15 15 19 19 14 9 11 11 6 6 8 7 3 3 5 2 2 2 2 5 6 6 7 4 2 4 4 5 4 4 5 6 7 6 2 2 3 6 8 8 6 5 9 8 9 9 8 7 6 5 5 4 3 3 2 2 1
8 8 7 6 6 8 7 3 4 7 7 5 5 6 8 12 17 23 23 15 7 2 1 8 9 3 1 9 9 13 16 13 11 19 23 18 14 13 11 8 7 6 4 1 6 8 4 3 4 4 5 6 6 6 4 3 6 6 6 5 5 6 6 7 10 6 3 4 8 9 8 7 5 10 9 8 9 7 7 6 4 4 4 3 3 3 2 2
10 11 10 8 6 6 4 1 7 9 8 5 3 4 2 0 4 9 13 12 9 6 4 2 5 4 3 6 10 17 14 7 7 18 25 23 16 11 6 6 5 2 3 2 3 5 4 6 5 5 5 6 6 5 4 5 7 6 6 6 5 6 6 9 14 9 2 3 7 9 9 11 8 9 11 9 9 8 8 7 5 4 3 3 2 2 2 3
11 12 11 10 7 4 1 3 6 7 8 5 2 2 1 0 2 2 2 6 7 5 4 2 4 6 3 4 9 15 7 3 9 17 25 26 13 4 4 5 2 2 2 1 1 3 6 7 5 5 5 6 6 5 7 9 8 6 6 6 5 5 8 12 14 8 3 4 8 11 12 12 10 6 11 10 10 9 8 7 6 4 3 2 2 2 3 3
10 12 12 10 7 4 2 4 5 6 10 10 8 5 3 3 4 4 1 4 4 5 3 5 7 9 6 3 9 14 5 4 11 15 26 26 11 4 6 5 4 4 4 1 2 2 6 6 5 6 6 6 6 3 8 13 10 6 4 3 5 6 10 11 9 6 6 6 8 14 13 10 11 5 10 11 9 7 6 5 4 4 3 3 3 3 3 4
10 11 11 8 5 4 4 6 6 5 7 8 8 6 3 4 5 3 2 2 2 2 2 5 7 9 9 6 11 15 7 8 10 12 22 20 8 5 5 5 5 5 6 6 3 4 4 4 6 6 5 6 6 4 9 11 9 5 2 4 5 8 10 9 9 11 10 7 10 16 12 8 10 5 6 8 6 5 5 5 5 4 4 4 3 2 3 5
8 10 10 8 4 2 3 5 5 7 9 7 7 6 4 3 2 0 2 1 1 1 2 2 3 6 7 4 10 12 5 7 8 11 18 15 7 4 2 3 4 4 6 6 5 6 4 3 6 7 5 5 7 7 8 6 7 5 4 4 7 12 12 11 13 15 12 9 10 10 8 7 4 2 6 5 5 6 6 5 5 4 4 4 2 3 5 6
6 8 10 10 5 1 1 3 4 6 7 5 5 4 2 2 2 3 3 1 2 1 2 2 1 6 7 7 12 7 0 5 7 10 15 12 7 4 1 1 1 4 6 5 3 5 3 2 4 7 5 7 7 5 5 4 6 5 2 4 10 15 16 16 15 12 9 7 3 2 4 6 3 2 5 6 5 6 6 5 5 4 4 5 5 5 6 7
4 6 9 10 7 3 2 1 2 3 3 3 2 1 1 2 3 1 1 1 2 2 2 3 3 8 10 10 12 3 3 4 7 12 15 12 6 1 1 3 0 3 4 4 3 1 3 4 4 7 6 7 7 5 4 4 4 5 3 7 12 15 17 18 15 9 5 6 5 2 3 5 7 6 1 8 7 6 7 5 4 4 5 5 6 6 7 9
2 4 6 7 7 6 3 1 2 2 0 1 1 2 1 1 1 2 1 1 2 2 4 5 4 8 9 10 12 3 3 6 8 11 16 14 8 1 1 5 2 2 2 2 2 1 3 6 6 8 5 5 6 6 6 4 2 5 6 9 13 16 18 18 13 7 6 6 9 7 3 5 8 9 3 7 8 6 7 5 5 6 6 7 8 9 10 11
3 4 5 5 6 7 3 2 2 1 0 1 1 2 1 1 3 1 1 1 2 3 2 3 3 7 9 8 10 6 2 6 5 8 15 15 10 2 1 6 4 4 2 1 2 1 2 4 4 5 5 5 5 7 7 3 1 6 8 9 12 15 18 17 10 7 7 4 7 6 8 8 8 11 7 4 7 6 7 6 7 7 8 10 11 11 13 13
3 5 5 6 6 5 3 3 3 2 1 1 1 1 1 2 2 0 1 1 2 2 0 3 3 6 9 6 7 7 2 3 3 7 12 11 12 6 1 3 5 6 5 2 1 2 1 3 1 2 4 2 5 9 8 3 4 8 9 10 10 12 16 14 6 6 5 2 4 7 12 8 9 11 8 2 4 3 6 7 7 8 10 11 11 12 13 13
5 6 7 8 6 5 4 4 3 3 2 1 2 1 2 2 0 1 1 0 2 2 0 3 2 3 8 5 5 7 5 4 4 6 6 6 10 10 2 1 4 4 4 3 2 1 2 2 1 1 2 2 5 9 7 4 6 8 9 9 9 9 10 7 1 2 4 3 3 9 13 10 8 7 4 4 3 3 6 6 6 8 10 11 12 13 13 12
7 8 8 8 5 5 5 2 1 2 1 2 2 2 1 0 1 2 1 0 1 3 2 3 2 3 6 4 3 8 6 4 5 6 6 5 8 11 7 3 5 3 1 2 3 0 1 1 1 0 1 3 4 8 6 3 5 6 5 7 8 7 5 3 3 3 4 5 6 11 15 12 7 4 4 5 4 6 6 5 8 11 12 13 14 14 14 13
10 9 8 8 5 4 2 1 1 2 2 2 2 1 0 1 3 3 2 1 1 3 2 1 3 4 4 1 3 7 3 3 5 4 4 5 6 8 8 5 5 4 3 4 4 4 1 1 1 1 2 3 5 6 5 4 5 5 5 6 7 7 6 5 5 4 4 8 9 13 15 9 7 4 5 7 5 6 6 6 9 12 14 15 14 13 13 13
12 11 12 12 9 7 4 1 1 1 2 2 1 1 1 2 3 1 2 3 1 2 1 2 3 5 5 3 4 5 1 1 4 4 2 3 5 5 7 8 8 4 3 4 5 5 2 0 1 1 2 2 5 4 4 4 5 6 6 6 5 5 6 5 5 5 6 10 12 14 11 6 6 3 6 7 6 6 5 9 9 11 13 14 13 12 13 15
13 15 16 17 16 14 8 3 2 1 2 1 1 1 4 4 2 1 1 3 1 2 1 1 4 5 2 2 2 4 2 1 3 5 4 3 5 4 4 8 10 6 3 3 2 3 3 2 2 2 2 3 3 2 0 3 5 4 5 5 3 3 3 3 4 5 7 11 13 12 7 4 6 2 5 5 7 6 6 11 11 13 14 13 12 14 17 20
9 13 16 18 19 16 11 5 2 2 2 0 1 4 5 4 1 1 1 1 1 3 3 2 4 3 1 2 1 1 1 1 2 4 5 4 4 4 4 6 8 7 3 3 2 2 2 3 3 2 2 2 2 1 2 2 3 3 4 3 2 2 2 3 6 7 9 11 10 7 4 3 7 3 4 4 4 2 13 17 17 17 17 16 15 17 20 20
7 8 10 16 20 16 12 7 3 2 1 0 4 6 3 1 1 2 1 2 1 4 6 3 2 3 3 1 1 4 1 1 3 2 3 3 4 5 5 2 4 6 4 2 3 2 1 5 10 8 3 1 2 2 2 1 2 2 4 2 2 5 2 2 7 7 8 10 7 6 6 6 8 4 2 3 7 12 18 19 18 18 18 19 17 18 20 19
8 5 6 16 22 17 12 8 4 1 1 3 7 4 1 1 1 2 2 2 0 1 4 3 1 2 4 3 3 7 5 1 4 4 2 2 2 4 5 2 3 6 4 2 1 0 1 6 12 8 4 3 3 1 1 1 2 3 3 2 2 5 2 1 5 6 7 9 6 8 12 10 8 4 4 11 16 17 18 19 19 19 20 19 17 19 21 20
8 3 3 15 21 16 14 11 6 2 1 6 7 3 1 2 1 2 3 3 1 1 2 2 1 1 3 4 3 6 7 4 5 5 3 2 1 3 4 3 3 6 6 3 1 0 1 5 7 1 5 7 1 2 1 1 1 1 3 2 1 1 1 2 5 6 7 10 8 10 15 10 5 5 9 13 15 18 21 20 19 19 18 17 18 21 22 20
7 2 1 13 18 14 14 13 6 3 4 6 5 2 2 2 2 2 3 2 2 1 2 1 1 1 2 3 3 4 5 4 5 4 3 3 2 3 4 3 4 6 7 4 2 3 2 3 3 2 9 11 2 2 3 2 0 0 2 2 1 1 1 1 2 4 6 10 11 12 13 8 4 6 10 13 17 22 23 19 16 17 18 18 20 20 20 19
4 1 0 13 18 11 12 14 9 6 6 5 3 2 2 1 1 1 2 2 1 0 2 2 2 3 3 2 1 2 4 3 4 3 2 3 2 2 5 4 4 8 8 4 1 3 2 3 4 5 9 9 3 1 2 2 2 3 3 3 1 1 1 2 2 2 3 8 10 10 12 8 4 5 10 16 21 21 19 18 16 17 20 22 22 20 19 19
3 1 2 15 17 6 7 12 9 5 4 4 3 3 2 0 1 1 1 2 1 1 2 2 2 2 2 2 1 1 3 4 3 2 1 3 3 1 3 3 3 6 6 3 1 2 2 2 5 6 7 6 3 1 1 3 3 1 3 2 0 1 1 3 5 3 2 7 9 9 13 10 3 6 11 16 19 18 18 18 18 19 23 23 21 21 22 21
2 2 5 18 15 9 9 7 4 4 4 3 2 2 1 1 1 0 1 0 1 0 1 1 1 2 1 2 2 2 3 2 3 3 1 3 3 2 2 3 4 4 2 3 3 1 2 2 4 5 6 6 4 3 3 2 3 1 1 0 1 1 2 1 6 6 5 8 10 10 13 10 4 8 13 16 17 16 17 18 19 21 23 22 21 22 23 22
2 2 6 18 12 7 10 6 2 5 4 1 1 1 1 1 1 0 0 1 1 1 1 0 1 1 1 1 2 2 3 2 1 2 2 3 3 1 3 5 5 3 1 3 3 2 1 1 4 5 5 5 3 2 3 3 2 1 1 1 1 2 2 3 4 4 5 8 9 9 12 11 5 9 14 18 17 14 15 19 21 22 21 21 23 23 22 22
2 1 5 17 14 6 5 4 3 4 2 2 2 1 1 2 3 1 1 3 2 1 2 1 1 1 1 0 1 2 2 1 1 1 2 3 2 2 2 5 5 4 2 0 1 3 2 1 3 6 6 8 6 3 4 3 3 4 4 2 2 4 1 3 3 3 5 7 8 9 13 13 8 12 17 19 17 16 18 21 21 22 21 20 21 22 22 21
2 1 2 15 21 12 4 1 4 5 3 3 3 1 0 2 3 1 1 2 1 1 2 1 1 1 1 1 2 3 1 1 0 1 1 2 2 2 1 4 4 3 1 3 3 2 2 2 2 3 4 8 8 6 7 8 6 6 6 7 1 5 4 1 2 5 6 8 9 8 12 17 16 19 21 18 17 19 22 23 22 21 21 21 21 21 21 20
2 3 2 7 12 10 3 2 4 5 4 3 2 1 1 2 2 1 1 1 0 1 2 1 1 1 2 1 2 2 1 2 1 2 2 2 2 2 1 2 2 0 1 3 3 2 2 2 2 3 1 6 8 10 12 11 10 10 11 11 4 4 5 3 2 6 9 10 11 9 12 21 23 22 19 18 20 22 22 23 23 21 22 23 22 22 22 21
2 2 1 1 3 4 4 4 4 2 2 1 2 1 2 2 2 1 1 0 1 0 1 2 1 0 2 4 2 1 3 1 2 3 1 1 2 1 2 2 2 2 2 2 1 1 2 2 2 2 5 8 10 14 15 12 12 13 14 13 7 4 4 3 3 8 10 10 13 17 20 23 23 21 18 18 21 23 22 23 23 21 22 22 23 24 24 22
2 2 0 0 1 2 2 2 3 3 3 2 2 1 1 2 1 0 1 1 1 1 1 1 2 3 3 3 2 2 5 3 1 3 0 1 1 1 2 2 1 3 3 3 3 2 1 2 0 2 7 11 12 14 14 12 11 13 12 10 7 6 6 5 4 7 9 9 15 24 27 25 22 19 18 20 22 22 22 23 22 22 23 24 25 25 24 23
3 3 0 1 2 2 0 2 2 2 4 3 2 2 2 2 2 0 1 1 1 1 1 0 3 4 3 4 3 2 3 3 1 1 1 0 1 1 0 1 1 4 5 4 3 1 1 2 3 3 7 12 12 12 14 13 12 13 9 4 7 7 7 7 7 8 10 12 17 23 26 23 17 15 18 21 22 21 20 20 22 24 26 26 26 24 23 24
1 3 1 2 4 2 1 2 2 1 2 2 2 1 1 2 2 1 0 1 1 1 1 2 3 3 2 3 3 2 2 3 3 1 1 0 1 1 1 1 1 2 4 3 3 2 1 3 6 4 4 9 10 10 14 15 14 12 5 7 9 9 7 7 9 11 12 15 19 20 21 17 11 13 19 20 20 20 21 22 23 24 26 28 25 24 24 26
4 4 4 5 4 2 2 1 2 1 3 3 2 0 1 2 2 0 1 2 2 2 2 3 4 2 1 2 2 2 3 4 2 3 3 3 2 1 1 1 2 2 3 2 2 3 3 3 5 3 3 7 8 12 19 20 15 9 4 8 10 9 7 7 9 11 14 19 21 18 13 11 11 16 20 19 20 23 23 23 23 23 25 26 25 26 28 28
6 4 2 4 4 1 2 2 2 2 2 2 2 1 0 1 1 1 1 1 2 3 2 2 3 3 2 1 2 2 3 3 2 1 2 3 4 4 3 3 3 2 2 2 1 2 4 3 4 4 3 6 9 13 18 17 11 4 3 6 7 8 10 10 10 13 15 16 15 12 10 12 17 21 22 20 21 23 22 21 21 22 22 22 24 27 28 28
Wind_Direction
103 96 81 64 47 43 42 39 39 31 20 5 356 358 359 357 7 27 31 29 27 25 21 8 338 328 58 123 63 13 347 0 54 52 51 9 347 339 334 335 337 334 333 329 331 327 306 272 247 236 253 248 210 180 140 224 12 333 249 240 262 330 42 18 19 30 349 335 345 357 44 61 26 1 17 87 80 81 74 65 66 66 60 52 42 26 22 21
100 90 74 53 45 43 39 37 31 16 356 349 350 351 352 356 2 22 25 22 22 16 5 344 312 274 246 229 262 305 322 320 23 55 29 351 347 340 337 342 344 341 340 337 340 335 320 317 328 325 272 239 130 134 175 133 174 235 262 260 295 18 53 40 38 45 3 345 331 350 72 69 37 353 318 69 86 73 72 61 54 56 47 44 37 27 27 26
95 84 65 48 43 37 32 22 9 0 353 353 354 351 352 3 16 27 22 20 21 12 0 340 321 294 251 239 251 285 316 316 6 37 2 349 348 348 351 355 358 355 350 338 327 319 314 317 311 301 272 240 127 142 201 152 208 227 262 284 19 19 56 61 48 53 24 347 317 339 89 78 43 358 310 115 95 67 65 55 43 46 37 35 34 30 29 30
91 80 57 44 38 26 16 5 3 1 359 1 0 0 6 25 42 29 24 25 21 14 8 3 1 349 270 240 246 276 309 313 15 7 350 351 353 359 3 6 8 9 360 333 309 301 298 296 283 275 271 269 91 197 205 142 1 296 282 338 30 1 21 69 59 53 15 327 312 302 107 92 65 29 357 100 107 74 67 60 47 48 42 37 36 33 33 34
88 73 51 37 26 14 9 6 7 5 7 12 15 26 40 62 59 34 29 24 21 22 27 40 39 29 21 219 213 228 285 306 9 351 346 350 0 4 6 11 14 19 3 336 294 279 266 266 267 267 255 226 97 237 68 86 38 320 44 44 30 359 7 75 68 46 346 320 331 317 94 97 84 51 27 42 86 86 71 68 65 59 51 47 44 38 36 37
81 64 41 26 19 14 13 9 11 13 18 26 36 54 72 75 51 36 29 18 21 26 36 61 54 43 42 77 168 217 265 58 0 345 344 352 10 5 5 12 13 15 352 324 291 274 272 265 241 251 264 133 35 21 51 47 75 295 69 61 33 11 6 67 74 36 342 349 27 59 77 94 94 75 54 62 78 94 84 80 83 79 72 63 54 44 41 39
69 50 30 25 21 17 13 12 17 22 30 39 53 67 72 65 44 33 22 15 23 29 36 26 25 32 34 49 64 269 56 41 351 342 342 358 16 3 7 9 1 358 346 340 334 321 342 341 316 312 324 83 16 23 23 340 221 262 353 47 31 26 27 72 88 54 28 32 53 112 119 116 105 98 87 85 92 111 111 113 116 111 94 76 63 55 48 45
54 41 31 28 21 15 14 16 22 29 40 46 57 65 60 51 37 26 18 18 26 35 47 27 341 342 316 327 308 22 56 2 337 341 341 353 8 3 5 1 349 346 0 9 0 355 357 354 360 347 348 72 9 13 9 320 305 325 35 49 37 63 72 100 125 107 71 69 92 123 117 93 102 109 101 101 107 119 129 136 136 125 103 84 70 61 55 51
50 41 33 28 17 13 16 17 27 35 42 49 58 60 48 39 30 20 16 23 24 27 35 28 5 344 314 266 259 346 23 338 331 339 338 344 356 360 360 1 349 347 22 24 12 13 15 5 2 348 1 35 18 12 354 318 343 8 24 38 82 92 89 124 154 133 83 108 135 138 124 115 126 124 106 117 123 127 136 138 140 128 104 92 77 68 62 56
48 40 32 21 12 16 17 18 29 34 38 48 55 43 30 27 21 19 24 33 31 25 24 13 359 1 0 306 226 61 354 335 338 340 340 345 353 3 8 14 360 352 27 32 24 23 24 21 355 343 0 23 44 20 343 321 308 343 340 338 48 99 118 165 172 144 133 130 188 199 160 146 153 174 155 132 147 164 153 146 147 133 110 104 97 83 68 62
46 38 25 16 17 15 12 18 25 25 28 32 27 20 21 23 22 29 33 30 30 32 38 32 11 26 44 49 67 48 345 340 347 344 345 346 351 11 21 18 6 359 19 38 33 27 23 2 330 324 0 340 23 72 51 341 258 301 355 322 241 197 161 188 167 151 169 167 241 233 172 161 186 221 168 141 165 185 169 158 152 140 123 116 108 97 76 70
42 33 22 21 17 11 17 23 18 13 19 25 25 26 26 35 35 36 31 18 16 28 48 56 33 28 51 58 58 19 346 350 355 351 355 348 339 0 16 8 7 10 17 38 30 19 16 356 351 49 27 319 306 123 79 242 242 200 182 243 229 215 220 208 161 166 189 177 195 201 195 206 207 191 152 151 175 183 182 165 158 151 132 126 115 108 89 74
39 30 27 25 19 25 32 20 13 18 34 53 54 58 57 61 46 34 31 22 17 22 32 27 5 15 45 68 59 22 14 9 6 1 5 2 341 347 12 1 12 23 28 46 18 2 6 359 13 52 328 328 347 324 293 246 219 217 197 217 245 231 221 196 180 224 193 167 165 152 272 227 188 171 156 170 186 184 188 167 161 159 137 134 121 113 102 84
36 33 30 31 34 40 30 17 31 43 64 77 75 84 85 84 55 39 42 41 40 29 11 359 324 322 37 90 117 21 20 18 13 7 4 6 358 354 17 3 15 32 37 46 11 357 345 328 331 344 339 4 33 341 294 226 183 315 198 182 343 358 294 197 174 330 48 176 173 166 267 252 176 174 169 178 195 192 191 170 163 162 146 142 129 116 109 102
36 36 33 39 43 37 37 59 73 74 82 90 97 98 96 89 45 31 46 44 43 31 12 13 346 312 59 102 128 4 9 14 12 5 358 359 1 358 355 344 336 7 28 27 9 12 342 326 317 63 7 3 70 259 249 217 197 11 30 331 358 9 309 287 167 154 130 206 214 196 261 268 178 177 174 178 197 200 193 175 171 169 160 148 135 124 107 104
40 36 34 40 39 46 79 88 81 77 78 81 89 89 81 48 8 7 21 17 37 41 30 360 339 337 87 43 335 356 5 10 5 2 358 354 358 352 335 313 288 294 321 319 318 317 306 326 8 62 19 18 350 317 188 64 357 26 30 312 333 346 309 307 183 168 169 278 257 218 264 278 192 169 175 181 192 198 198 186 179 177 170 156 141 130 108 101
46 38 36 45 54 86 102 91 79 75 74 77 79 76 72 62 45 30 6 347 32 54 47 14 346 2 83 16 350 352 352 354 357 1 1 352 348 347 336 315 303 298 275 271 282 256 232 272 115 66 29 32 5 354 62 42 344 350 357 308 318 330 309 302 278 175 240 298 279 267 269 271 187 159 178 185 190 200 202 194 183 183 179 160 144 131 115 97
56 50 47 57 87 120 120 96 75 65 65 72 75 76 74 66 63 61 45 34 28 339 26 14 6 128 68 9 3 346 334 331 345 358 0 354 342 332 322 301 301 298 276 258 342 345 326 7 30 52 30 26 22 24 49 8 314 309 319 312 312 317 303 297 308 343 0 325 298 293 279 262 169 164 183 183 189 203 200 193 184 184 179 163 152 123 107 70
68 59 54 63 103 143 148 105 22 4 360 14 36 55 73 63 59 56 46 47 51 30 21 358 6 104 20 353 351 341 329 308 333 3 1 355 339 320 305 279 269 297 302 91 37 12 8 33 30 32 19 9 19 29 23 324 306 303 302 294 290 301 301 302 312 324 4 331 291 285 283 275 206 182 186 181 188 203 200 189 182 186 181 166 145 110 80 18
68 57 56 66 99 150 163 14 344 343 336 327 336 325 286 130 53 46 33 42 58 62 92 317 352 63 22 343 344 346 339 310 355 11 1 351 331 309 314 296 265 337 27 66 45 29 41 56 44 12 355 349 357 358 346 320 293 291 291 281 282 297 307 310 309 309 4 330 282 276 283 284 261 194 178 178 185 197 198 187 184 182 171 151 115 89 51 14
62 53 60 73 94 138 186 332 345 14 28 29 26 330 318 53 66 89 17 55 55 27 68 39 7 44 11 313 338 345 344 344 14 13 1 355 342 303 338 335 305 47 41 145 128 62 54 55 41 4 348 335 323 316 345 340 304 276 264 282 308 312 311 305 302 309 339 310 284 280 279 277 277 208 172 178 184 194 195 186 183 163 142 125 86 52 25 9
55 51 61 71 85 93 52 22 28 57 62 59 65 64 66 79 107 146 213 86 60 343 25 41 32 41 14 343 350 345 342 353 2 11 1 358 10 21 337 347 48 32 6 56 154 70 59 49 16 355 349 328 294 293 4 352 323 282 254 309 332 319 315 299 290 319 330 309 291 288 284 278 286 250 173 177 183 187 181 162 143 125 110 66 52 30 5 354
54 52 55 57 67 75 67 59 53 66 72 67 68 74 99 109 125 155 296 96 103 319 16 29 29 28 10 23 359 347 19 22 354 5 2 358 12 11 339 3 42 37 19 26 44 57 61 38 4 342 324 321 316 11 22 356 331 315 343 8 332 321 326 307 302 319 315 289 277 284 288 287 288 266 163 174 178 150 129 116 95 88 87 59 26 0 8 356
58 49 43 34 38 75 74 60 52 65 69 72 82 96 136 147 142 344 329 132 108 86 105 40 39 30 8 358 342 336 26 34 1 4 5 5 354 321 336 9 12 42 30 17 61 87 74 30 356 326 304 328 339 13 30 1 329 338 26 29 327 318 316 298 302 314 310 284 268 280 294 296 285 189 159 169 162 133 125 129 116 97 96 83 14 4 21 4
59 41 32 27 33 95 73 47 46 64 67 65 78 100 142 187 228 331 344 171 47 56 120 89 75 20 354 323 333 327 137 28 16 11 8 11 357 313 333 341 337 28 6 353 55 98 63 31 340 329 344 19 4 3 34 18 331 322 12 10 330 316 308 300 305 318 319 299 293 43 313 299 314 224 184 163 160 153 142 138 130 108 87 68 21 8 11 359
50 31 25 24 29 11 301 324 34 48 71 73 66 195 212 265 242 336 333 198 36 345 356 7 331 0 356 333 337 331 150 3 349 8 13 11 4 242 341 345 63 37 354 348 28 111 23 19 2 349 0 28 16 354 18 37 347 301 298 349 328 310 306 302 307 320 305 291 306 322 275 287 312 320 180 156 170 157 137 135 117 81 52 42 20 7 4 356
4 2 3 8 17 8 338 314 13 3 11 143 230 229 244 319 180 128 268 180 47 327 341 357 333 356 356 339 347 22 155 314 319 6 9 1 355 241 10 5 358 29 23 10 17 331 354 14 16 358 354 26 16 344 349 26 4 289 306 340 319 306 304 296 301 299 266 288 296 287 327 325 309 328 358 158 163 147 141 134 93 63 34 24 13 6 1 352
319 327 338 345 352 356 351 338 338 327 333 214 228 264 297 88 132 126 0 96 358 316 345 355 330 357 346 336 14 60 175 303 324 352 347 358 10 333 29 14 338 338 356 14 21 304 331 26 18 346 355 25 355 321 323 347 294 273 296 319 304 299 296 289 288 276 271 302 287 297 8 347 303 317 320 160 139 138 135 99 61 42 25 17 6 360 356 346
318 313 322 323 322 329 321 311 299 242 233 240 218 314 79 112 134 310 44 156 315 332 41 341 335 348 335 332 34 51 24 359 16 324 328 6 20 2 70 27 335 321 314 326 51 206 189 70 67 337 13 13 314 311 306 287 260 273 293 303 296 294 290 283 262 257 281 274 264 339 8 341 297 310 319 69 80 66 86 69 42 28 17 6 357 354 352 344
326 316 312 314 307 295 296 305 281 230 237 217 177 69 101 119 235 6 32 291 335 355 353 358 339 305 336 356 34 18 12 27 10 326 337 22 15 9 83 125 338 313 285 338 31 155 115 67 170 28 16 265 301 321 310 258 257 282 302 306 306 301 291 288 244 285 299 263 292 358 354 327 300 313 359 63 57 51 60 48 27 17 3 350 349 352 350 348
346 334 319 317 299 279 292 307 214 211 228 182 151 89 99 148 348 47 38 179 9 345 329 5 342 310 353 24 18 357 1 3 355 1 7 17 18 18 36 30 350 344 301 343 8 75 124 35 307 36 289 278 336 341 327 293 283 299 317 321 325 319 304 328 0 344 315 294 329 347 336 320 297 314 72 110 104 87 80 52 18 1 356 352 353 354 351 351
11 2 356 353 332 300 303 285 247 219 180 159 172 210 266 0 30 35 352 295 341 343 341 322 330 339 343 349 358 351 348 340 353 16 11 22 39 33 45 39 346 347 4 354 341 326 323 160 236 202 258 317 2 346 326 331 331 334 335 336 343 338 338 348 335 341 320 298 316 331 328 313 284 318 96 122 110 102 97 55 17 358 0 359 356 354 348 344
33 30 31 27 24 21 7 320 307 209 163 112 173 255 338 37 42 25 333 346 301 279 262 231 288 305 303 318 355 346 321 250 340 354 0 52 68 61 68 50 12 358 334 331 334 328 345 154 277 317 287 330 17 358 334 332 335 349 347 346 5 350 336 330 319 326 307 297 309 318 316 297 290 325 102 116 128 134 82 35 13 3 7 2 355 346 341 342
36 36 36 33 33 31 23 39 60 80 125 80 295 18 48 60 72 183 321 10 345 265 267 258 290 290 299 46 19 347 5 230 338 8 3 35 60 34 43 38 21 10 310 318 340 334 349 315 319 16 311 322 25 49 81 302 309 348 349 339 23 8 322 300 306 313 302 300 308 310 304 316 322 326 118 121 151 143 33 12 3 6 8 358 348 344 346 347
23 26 29 26 26 28 30 42 35 57 98 40 7 49 57 74 70 38 11 335 328 320 316 293 300 309 51 102 145 37 48 278 355 37 26 26 50 18 9 22 16 10 343 334 331 346 4 294 297 10 336 340 33 138 160 303 310 342 341 337 26 348 304 259 274 288 298 297 302 306 291 312 320 297 140 142 167 52 5 359 359 4 2 352 348 350 349 342
5 10 21 21 17 16 20 24 22 75 127 333 65 61 55 96 13 14 7 303 320 321 310 306 323 350 8 341 356 14 42 211 332 13 72 59 54 27 19 16 12 19 18 349 318 338 15 283 298 315 316 238 205 205 163 339 320 314 324 348 306 289 269 256 283 290 300 294 295 310 297 302 316 296 159 16 355 0 356 352 354 358 356 351 349 349 341 332
1 358 22 19 11 6 9 13 14 31 345 54 76 75 43 100 351 347 350 326 325 269 304 331 15 355 348 343 358 353 345 332 337 343 53 81 44 15 7 351 33 31 12 341 307 9 136 283 292 303 314 267 212 139 129 223 340 339 329 346 291 280 227 152 303 308 312 299 292 307 306 313 320 306 2 2 354 351 347 348 355 356 354 349 344 340 333 327
352 331 24 15 6 3 9 11 359 327 57 71 78 90 51 47 8 358 356 323 259 247 324 5 35 346 349 346 340 345 352 359 346 349 22 24 358 18 8 344 22 21 356 334 301 1 33 298 282 285 343 317 265 98 8 297 57 17 329 341 88 319 311 341 319 311 312 303 299 310 310 312 317 327 355 355 346 345 345 351 358 352 348 343 337 334 329 326
343 298 8 6 359 357 7 14 12 13 70 75 77 95 66 53 49 22 355 317 261 289 356 26 8 21 25 358 335 349 7 3 336 345 19 0 346 40 33 340 323 347 344 331 307 326 349 293 280 341 328 314 301 93 342 330 95 1 331 337 81 82 279 278 292 289 305 304 305 315 311 310 353 352 352 352 348 349 348 349 351 345 341 339 333 331 329 328
331 273 346 355 354 359 21 37 47 42 56 70 73 72 60 100 112 26 339 336 285 306 19 358 344 0 1 5 49 20 351 322 318 349 25 5 346 59 40 2 317 325 324 303 280 332 323 263 283 318 319 315 329 34 344 20 18 336 330 318 351 57 244 237 247 257 305 306 306 312 303 304 10 6 356 357 349 348 348 346 344 340 338 335 331 331 330 327
314 88 330 346 354 13 42 46 46 34 59 68 64 68 39 212 146 72 330 344 335 92 51 13 8 7 344 346 25 11 328 302 320 0 50 34 27 51 35 10 322 321 323 311 282 2 351 280 281 308 318 324 342 3 66 110 120 294 314 319 346 34 340 313 302 290 317 305 300 302 295 296 22 23 0 355 346 347 353 347 340 336 334 333 331 331 329 325
351 93 332 345 4 61 69 54 27 18 64 61 42 85 10 257 154 30 231 332 337 123 77 61 25 6 5 356 339 351 351 315 336 4 66 76 49 8 354 342 305 282 282 319 315 33 41 281 271 291 304 307 325 24 32 78 129 173 203 156 312 30 94 321 299 306 320 302 295 296 288 286 25 24 353 348 347 353 355 344 336 333 332 331 330 329 328 324
41 106 356 353 4 73 70 67 51 32 63 131 214 122 341 353 95 294 257 48 3 277 330 53 97 31 50 27 318 337 4 334 336 13 69 93 89 273 315 333 319 302 317 328 327 12 68 269 293 301 297 299 314 35 20 29 47 352 214 168 180 129 138 218 257 298 310 296 299 301 289 288 353 12 346 343 348 353 349 342 336 331 329 330 329 328 327 324
63 161 14 14 28 86 78 72 106 72 86 165 143 94 7 40 55 23 32 35 4 314 341 0 118 13 4 77 279 299 346 14 34 50 82 77 101 212 299 336 337 359 26 331 310 346 338 295 337 333 329 332 339 348 339 337 341 325 312 325 113 118 119 246 248 302 298 289 303 303 289 291 326 348 339 340 346 347 343 339 337 331 327 329 329 328 326 325
55 67 4 22 39 66 83 60 112 118 131 134 101 73 75 79 62 10 12 25 344 319 331 246 169 302 272 174 230 256 208 146 324 354 99 74 107 180 324 343 337 11 61 194 213 310 313 303 13 25 346 328 325 317 315 319 320 312 304 306 326 102 80 48 292 306 304 299 299 289 285 296 317 334 337 341 345 343 339 338 336 331 326 327 328 327 327 326
55 46 0 12 33 54 66 26 76 115 142 134 98 26 18 77 100 206 297 353 276 291 294 244 180 213 258 296 266 254 110 143 130 44 34 44 87 163 247 315 310 291 249 250 221 203 283 303 55 69 277 276 284 286 291 300 304 302 304 309 321 105 97 67 352 304 308 307 297 288 295 304 317 330 337 344 344 339 338 338 335 330 327 328 327 326 326 327
60 57 20 13 31 46 54 33 37 91 155 145 104 53 46 83 115 196 286 288 191 210 265 264 333 48 337 341 319 322 352 350 108 80 21 323 81 134 222 233 255 253 245 280 63 102 292 286 70 20 287 268 275 281 283 288 294 299 305 309 321 89 91 44 349 307 317 317 304 311 318 314 317 329 341 346 342 338 338 337 332 328 327 326 324 324 325 328
52 141 240 2 65 36 44 10 3 51 61 62 103 104 78 99 101 353 317 244 193 184 209 238 27 34 15 352 313 319 345 348 99 113 166 304 60 173 212 220 295 28 25 352 27 68 277 264 123 319 292 290 289 285 288 296 300 301 303 309 338 40 34 1 327 310 322 315 303 314 320 316 317 332 345 344 339 338 338 334 328 326 325 323 322 324 327 332
66 106 29 352 100 97 162 267 298 48 61 63 88 69 44 80 93 197 265 291 205 177 190 41 33 28 10 350 330 332 356 347 311 156 145 341 269 240 170 169 159 56 44 356 342 81 147 306 323 298 288 294 291 288 301 313 311 304 308 356 22 20 8 346 324 314 312 301 302 311 313 312 320 337 341 340 338 336 333 329 327 327 326 323 323 326 333 335
122 129 126 82 85 79 261 271 287 39 60 47 63 35 357 69 95 171 200 349 355 91 29 0 12 14 352 338 341 15 17 329 309 327 43 67 272 264 74 79 282 25 40 8 326 344 39 333 321 313 295 296 299 309 317 318 312 305 327 43 19 357 358 344 324 320 318 311 311 313 309 308 325 339 336 337 336 332 330 331 331 329 325 323 326 332 336 334
99 124 140 112 80 349 311 294 291 38 44 24 41 17 317 55 67 235 29 17 25 53 28 345 343 333 226 267 329 27 20 354 8 29 23 39 40 21 74 32 341 347 4 358 328 340 3 326 309 326 317 296 314 331 324 317 312 312 9 29 2 347 348 337 324 327 326 319 317 318 314 314 331 336 334 335 333 330 331 333 331 328 325 325 332 338 335 332
101 107 122 103 93 328 321 327 334 58 72 16 29 51 294 66 57 343 20 55 51 51 39 342 330 315 221 224 334 27 29 15 51 30 347 51 75 68 64 46 42 44 347 340 341 347 355 332 317 346 323 290 315 328 318 312 313 319 45 27 1 346 336 328 327 326 322 320 322 323 323 328 334 334 331 331 333 330 330 331 328 324 324 330 336 336 331 331